Location: Berlin
(52.5170°N, 13.3889°E)
Time: 23:35:05
(UTC+02:00)

LES 1 - Pass Details

Date: 22 June 2025
Orbit: 2779 x 2808 km, 32.1° (Epoch: 12 July)

Event Time Altitude Azimuth Distance (km) Brightness Sun altitude
Rises 02:29:57 0° 260° (W) 6,574 12.0 -12.0°
Reaches altitude 10° 02:34:50 10° 251° (WSW) 5,555 11.5 -11.7°
Maximum altitude 02:47:37 31° 197° (SSW) 4,086 10.6 -11.0°
Drops below altitude 10° 03:00:29 10° 142° (SE) 5,566 11.6 -10.2°
Sets 03:05:25 0° 133° (SE) 6,589 12.1 -9.9°
